Regional Weather Roundup
Issued by NWS

Home | Current Version | Previous Version | Text Only | Print | Product List | Glossary Off
Versions: 1 2 3 4 5 6 7 8 9 10 11 12 13 14 15 16 17 18 19 20 21 22 23 24 25 26

000
ASUS45 KSLC 271410
RWRUT

UTAH REGIONAL WEATHER ROUNDUP
NATIONAL WEATHER SERVICE SALT LAKE CITY UT
800 AM MDT THU JUL 27 2017

UTZ001>011-023>025-271500-

NORTHERN UTAH

CITY           SKY/WX    TMP DP  RH WIND       PRES   REMARKS
BRIGHAM CITY   SUNNY     64  55  72 CALM      30.21R
DUGWAY         MOSUNNY   65  60  81 SE2       30.20
HILL AFB       MOSUNNY   65  55  70 E14       30.22R
LOGAN          SUNNY     63  57  81 CALM      30.21R
OGDEN          SUNNY     68  56  65 S6        30.20R
SALT LAKE CITY MOSUNNY   70  59  68 SE3       30.18S
TOOELE VALLEY  MOSUNNY   70  55  60 S10       30.19F
WENDOVER       SUNNY     66  55  67 CALM      30.19R
HEBER CITY     SUNNY     57  52  82 CALM      30.29S
WEST JORDAN    SUNNY     68  64  86 S6        30.21S

$$

UTZ011>015-024>027-271500-

CENTRAL/NORTHEAST UTAH

CITY           SKY/WX    TMP DP  RH WIND       PRES   REMARKS
PROVO AIRPORT    N/A     66  59  77 CALM      30.22F
MOAB/CANYONLAN SUNNY     73  64  73 CALM      30.16R
DELTA          SUNNY     64  54  68 SW3       30.22F
PRICE          SUNNY     70  55  59 CALM      30.26R
RICHFIELD      SUNNY     63  59  88 CALM      30.30R
ROOSEVELT      SUNNY     64  55  72 CALM      30.26R
VERNAL         SUNNY     69  56  62 CALM      30.24R

$$

UTZ013>016-019>022-027-271500-

SOUTHERN UTAH

CITY           SKY/WX    TMP DP  RH WIND       PRES   REMARKS
BRYCE CANYON   SUNNY     57  53  86 W5        30.41S
CEDAR CITY     SUNNY     63  60  90 CALM      30.27R
MILFORD        SUNNY     67  53  61 CALM      30.24R
ST GEORGE      SUNNY     76  66  71 NE5       30.09R
HANKSVILLE     SUNNY     70  63  78 CALM      30.19R
KANAB          SUNNY     70  59  68 N9        30.26R
BLANDING       SUNNY     72  53  51 CALM      30.33R

$$

REGIONAL REPORTS     COLORADO/ARIZONA

CITY           SKY/WX    TMP DP  RH WIND       PRES   REMARKS
CRAIG, CO      SUNNY     60  56  86 CALM      30.33R
GRAND JUNCTION SUNNY     71  61  70 SE7       30.20R
RIFLE, CO      SUNNY     67  60  78 CALM      30.27R
MONTROSE, CO   SUNNY     67  57  70 SW5       30.29R
CORTEZ, CO     SUNNY     65  56  72 NE3       30.26R
COLORADO CITY    N/A     68  64  88 CALM      30.24S
PAGE, AZ       SUNNY     79  58  48 CALM      30.15R
GRAND CANYON   SUNNY     62  56  80 CALM      30.35R
KINGMAN, AZ    SUNNY     75  64  68 CALM      30.10R
FLAGSTAFF, AZ  CLOUDY    59  57  93 CALM      30.36S

$$

REGIONAL REPORTS    NEVADA/IDAHO/WYOMING

CITY           SKY/WX    TMP DP  RH WIND       PRES   REMARKS
LAS VEGAS, NV  MOSUNNY   87  62  43 N3        30.00R
ELY, NY          N/A    N/A N/A N/A MISG      30.32R
ELKO, NV       SUNNY     60  49  66 SW3       30.25R
POCATELLO, ID  CLOUDY    61  55  81 CALM      30.22R
BURLEY, ID     CLOUDY    64  55  72 CALM      30.18R
FORT BRIDGER,    N/A     62  50  65 W8        30.38S
EVANSTON, WY   SUNNY     57  52  83 S8        30.36S
ROCK SPRINGS,  SUNNY     63  51  65 SW6       30.33S
KEMMERER, WY     N/A     57  48  72 NW8       30.38R

$$




USA.gov is the U.S. government's official web portal to all federal, state and local government web resources and services.